Location: Poughquag
(41.6090°N, 73.6820°W)
Time: 12:42:01
(UTC-04:00)

Transit 2A - Pass Details

Date: 03 June 2020
Orbit: 592 x 967 km, 66.7° (Epoch: 06 July)

Event Time Altitude Azimuth Distance (km) Brightness Sun altitude
Rises 00:00:47 0° 313° (NW) 3,608 10.3 -24.9°
Reaches altitude 10° 00:04:10 10° 296° (WNW) 2,690 9.3 -25.0°
Maximum altitude 00:08:08 18° 256° (WSW) 2,198 8.3 -25.2°
Enters shadow 00:09:35 16° 240° (WSW) 2,269 8.2 -25.2°
Drops below altitude 10° 00:12:08 10° 217° (SW) 2,694 - -25.3°
Sets 00:15:33 0° 199° (SSW) 3,614 - -25.4°
